Wind_Speed
23 22 22 22 22 22 22 22 22 21 21 20 20 20 19 18 17 17 16 15 15 15 14 14 15 16 17 17 16 16 15 15 14 13 13 12 12 12 12 11 12 12 12 12 12 12 12 12 12 12 13 14 15 16 16 15 15 14 14 14 14 13 11 8 6 7 8 7 6 6 7 7 8 7 7 7 7 8 8 9 10 9 9 9 9 9 9 7
24 23 23 23 22 23 23 23 23 22 22 21 21 20 20 19 18 18 17 16 16 16 16 16 16 16 17 17 16 16 15 15 14 13 13 12 12 12 12 12 12 12 12 12 12 12 12 12 12 12 13 13 14 15 15 15 15 15 15 14 13 11 9 8 8 8 8 7 6 6 6 7 8 8 8 7 8 8 9 10 11 10 10 10 10 11 10 9
25 24 23 23 22 23 23 23 23 23 22 22 22 21 20 20 19 19 18 17 17 17 17 17 17 18 17 17 17 16 15 14 13 13 12 12 12 12 12 12 12 11 11 12 12 12 12 12 12 12 13 13 13 14 14 14 14 14 14 14 13 10 9 9 10 10 8 7 7 6 6 6 7 8 7 7 8 9 9 10 11 11 11 11 11 11 11 10
25 24 23 22 22 23 23 23 23 23 23 22 22 22 21 21 20 19 19 18 18 18 18 18 19 19 18 18 17 16 15 14 13 12 12 12 11 12 12 12 12 12 12 11 11 12 12 12 12 12 13 13 13 14 14 14 13 14 14 13 12 10 9 10 10 10 9 8 7 7 6 6 7 7 7 7 8 9 10 11 11 12 12 11 10 10 10 10
24 23 23 23 23 23 23 23 23 23 23 22 22 22 22 22 21 20 20 19 19 19 19 19 20 20 19 19 17 17 15 12 13 13 12 11 11 12 12 12 12 12 11 11 11 11 12 12 12 12 13 13 13 14 14 14 13 13 13 12 11 10 10 10 10 10 9 9 8 8 7 6 7 7 7 7 8 9 11 11 11 11 10 9 9 10 10 9
24 24 24 24 24 24 23 23 23 23 23 23 22 23 23 22 22 21 21 20 20 20 20 20 21 21 20 19 18 17 15 11 12 13 12 12 12 12 12 12 12 12 11 11 11 12 11 12 12 12 12 12 13 13 14 14 13 13 12 11 10 9 9 9 10 9 10 9 9 9 7 7 8 7 7 6 7 10 11 10 10 11 10 10 10 11 11 11
25 25 25 25 24 23 23 23 23 23 23 23 23 23 23 23 23 23 22 22 21 21 21 21 21 21 20 19 18 16 15 12 11 13 12 12 12 12 13 12 12 12 11 11 11 12 11 11 12 11 11 12 12 13 13 13 13 12 11 10 9 9 9 9 9 9 10 10 10 9 7 8 8 7 6 4 8 11 11 11 11 11 11 11 11 11 12 13
25 25 24 24 23 22 22 22 23 23 23 23 24 24 24 23 23 23 23 23 22 22 22 22 22 22 21 19 18 16 15 13 11 13 13 12 12 13 13 12 12 12 12 11 12 12 11 11 11 11 11 11 11 12 13 12 12 11 10 9 9 8 8 9 9 10 10 10 10 10 9 9 9 9 5 5 9 12 11 11 12 12 12 12 12 12 13 13
23 23 23 23 22 22 22 22 22 23 23 23 23 24 23 24 24 23 23 23 23 23 23 23 23 22 21 19 18 16 15 14 12 12 13 13 12 12 12 12 12 12 11 11 11 12 12 11 11 10 10 10 10 11 12 11 10 10 9 8 8 8 8 9 9 10 11 10 11 10 11 10 10 10 5 7 12 13 11 11 11 12 12 12 13 14 14 14
22 22 21 21 21 21 21 22 22 22 22 22 23 23 23 24 24 24 24 24 24 24 24 24 23 22 21 19 18 17 16 15 14 12 13 13 13 12 12 12 11 12 11 11 11 11 11 11 11 10 10 9 10 10 11 10 9 9 8 7 7 7 8 9 9 10 10 10 11 11 12 11 12 12 6 8 12 11 10 10 12 13 13 13 14 14 15 15
21 21 20 20 20 20 21 21 21 21 22 22 23 23 23 24 24 24 24 24 25 25 25 24 23 22 21 20 18 17 16 16 15 13 13 13 13 12 12 11 11 12 12 12 12 12 12 11 11 10 10 10 10 10 10 9 8 8 7 7 7 8 9 9 10 10 10 10 10 12 13 13 13 10 4 8 10 10 11 11 12 13 13 14 14 15 15 15
21 21 20 20 20 20 20 21 21 21 21 21 22 23 23 24 24 24 24 25 25 25 25 24 23 22 21 20 19 18 17 16 15 14 14 13 13 12 12 12 12 12 12 12 12 12 12 12 11 11 10 10 10 9 9 9 8 8 7 7 8 9 10 10 10 10 10 10 10 12 14 15 13 7 5 10 11 11 12 11 12 12 13 14 15 15 15 16
23 22 21 21 21 21 20 20 20 20 21 21 21 22 22 23 24 24 25 25 26 25 25 24 23 22 21 21 20 19 18 17 16 15 14 14 13 13 12 12 12 12 12 12 12 12 12 12 11 11 11 10 11 10 8 9 9 8 8 8 9 10 11 12 11 10 10 10 11 12 14 15 10 6 8 12 12 12 12 12 13 14 14 15 15 16 16 16
23 23 22 22 21 21 21 20 20 20 20 20 21 22 22 23 23 24 25 25 26 25 24 23 22 21 21 21 21 20 18 17 16 15 14 14 14 13 13 12 12 12 12 12 12 11 12 12 11 12 11 11 11 10 9 9 9 9 8 9 11 11 11 12 11 11 12 12 12 13 18 17 10 10 12 12 12 14 13 14 15 16 16 17 17 17 17 17
24 24 23 23 22 22 21 21 20 20 20 20 21 21 21 22 23 24 25 25 25 25 24 23 21 21 21 21 21 21 20 18 16 15 15 14 14 14 13 13 12 12 12 12 12 11 11 12 11 11 12 11 11 11 10 9 9 9 8 10 12 11 11 12 11 12 12 13 14 14 18 16 11 12 13 12 14 15 15 15 17 18 18 18 18 18 18 18
24 24 23 23 23 22 22 22 21 21 20 20 20 21 21 21 22 23 24 24 24 24 24 22 22 21 21 20 21 21 20 19 17 16 16 15 15 14 14 14 13 13 12 12 12 11 11 11 11 11 11 12 11 11 10 10 10 11 11 13 13 11 11 12 12 13 13 14 15 16 19 18 13 13 13 12 15 16 17 17 18 19 19 20 20 20 19 19
24 24 24 23 23 23 23 22 22 22 21 21 21 21 21 21 22 23 23 23 24 24 24 22 22 21 20 20 21 21 20 19 19 18 17 16 16 15 15 14 14 13 12 12 12 12 12 11 11 12 11 11 12 11 10 10 12 13 14 14 13 12 13 13 13 13 13 15 17 18 23 22 17 16 16 15 17 19 20 19 19 21 21 21 21 21 20 20
24 24 24 24 23 23 23 23 23 22 22 22 22 22 21 22 22 22 23 23 23 24 24 23 23 22 21 21 21 20 20 19 19 19 18 18 17 16 16 15 15 14 13 13 12 12 12 12 12 12 12 13 12 11 10 10 11 12 12 12 12 13 14 13 12 12 13 16 17 19 24 23 18 18 17 17 19 22 22 21 21 21 21 21 21 21 21 21
23 23 24 24 24 24 23 23 23 23 23 23 23 22 22 22 22 23 23 24 24 24 24 24 25 23 20 20 20 20 21 20 19 19 19 19 19 18 17 17 16 15 15 14 14 14 14 13 13 13 14 12 9 8 10 11 10 10 11 11 12 13 13 12 11 13 14 16 19 20 24 24 21 19 17 17 21 24 23 22 21 20 20 20 21 22 22 22
24 24 24 24 24 24 24 23 23 23 22 23 23 22 23 23 23 23 23 24 24 25 23 22 24 24 20 18 19 20 21 21 21 20 20 20 20 20 20 19 19 18 17 16 15 15 15 15 15 15 12 8 6 9 11 12 12 12 12 13 13 12 12 11 11 13 14 17 20 20 23 26 24 21 17 17 22 25 24 22 21 21 20 20 21 21 22 22
25 25 24 24 23 23 23 23 23 23 22 22 22 23 23 22 22 22 23 23 23 24 24 22 21 23 23 19 18 20 21 21 21 21 21 21 21 21 22 22 21 20 19 18 18 17 16 17 16 14 13 10 10 13 14 13 13 13 13 12 12 11 11 12 12 13 13 17 20 20 24 27 25 22 20 19 22 24 23 24 23 22 22 21 20 19 19 20
27 27 26 25 24 23 23 23 23 23 23 22 22 22 21 21 22 21 21 22 23 24 24 23 22 21 23 21 19 19 20 21 21 22 22 22 22 23 23 22 22 22 21 20 20 19 19 18 16 15 14 12 13 15 15 15 15 13 13 12 11 11 11 11 12 13 13 17 21 22 26 28 26 24 22 20 22 23 23 24 24 23 22 20 18 18 19 21
28 28 28 26 25 24 24 23 23 23 23 23 23 22 21 21 21 21 21 21 23 24 24 24 24 22 22 22 21 21 20 20 20 21 21 21 22 22 23 22 22 23 23 22 21 21 20 18 16 17 16 14 14 16 17 17 16 14 13 12 12 11 10 10 13 15 16 19 22 24 30 32 28 26 25 22 23 25 23 23 24 22 20 18 18 19 20 22
33 30 28 28 27 26 25 24 24 24 24 23 23 23 22 21 21 21 21 21 22 24 25 25 25 25 24 22 23 23 22 21 20 20 20 20 21 21 22 22 23 24 24 23 22 23 22 18 16 17 18 17 17 17 18 17 16 14 13 12 11 10 11 13 16 18 20 22 23 24 29 33 32 29 26 22 22 23 21 21 22 19 19 19 19 19 21 22
41 37 33 30 27 27 27 25 25 24 24 24 23 23 23 22 22 21 20 21 23 25 26 27 27 26 26 26 26 25 24 23 23 21 20 20 20 20 21 22 23 23 23 22 22 23 24 21 20 18 17 17 17 18 18 16 15 14 13 12 11 12 14 15 15 17 19 19 20 20 16 20 31 31 26 23 23 22 21 22 21 19 19 20 20 21 21 22
42 43 41 37 32 29 27 27 26 24 24 23 23 23 23 23 21 21 20 19 23 28 28 27 28 28 29 30 29 26 25 27 26 24 23 23 22 22 21 21 22 22 20 20 21 24 25 24 22 21 20 18 16 17 17 15 13 14 15 13 13 15 15 15 15 14 14 14 19 22 13 16 33 37 29 26 26 24 22 22 20 18 19 20 21 21 19 19
36 39 43 44 41 37 33 30 28 27 27 24 23 22 22 22 20 20 19 12 17 29 31 30 30 30 31 32 30 27 27 28 28 28 28 26 25 25 24 23 23 21 20 20 21 25 25 23 23 24 25 24 22 19 18 16 16 17 17 15 15 15 14 14 14 13 17 20 25 29 23 20 31 37 31 28 28 26 22 20 18 17 19 20 20 18 17 17
33 34 38 43 45 44 42 38 33 32 30 27 26 24 22 21 19 20 15 5 9 21 27 31 34 32 31 31 31 32 32 29 26 27 30 28 27 26 26 26 24 21 21 21 24 25 22 21 22 24 25 27 27 22 19 19 20 20 19 16 16 14 13 13 13 16 19 21 24 26 20 13 24 37 35 32 32 28 22 18 15 16 18 18 18 17 17 16
33 32 34 37 40 44 45 44 42 37 32 30 27 26 25 21 19 18 10 5 11 16 19 26 31 33 33 31 30 33 35 33 27 25 26 28 29 29 27 26 24 23 23 24 27 26 22 21 20 21 25 27 26 22 20 20 21 21 19 18 16 12 13 12 13 17 16 15 19 20 14 7 23 44 39 33 35 29 21 17 14 15 16 17 18 17 16 16
34 34 33 31 35 40 43 44 44 43 39 34 28 26 25 23 22 16 6 10 19 18 19 22 24 29 32 33 32 32 33 33 31 28 26 26 27 29 29 27 25 25 27 27 28 28 27 25 23 23 25 24 23 21 21 21 21 22 18 15 12 11 12 13 15 15 9 10 15 17 13 4 16 40 37 30 31 23 17 16 15 16 17 19 19 15 16 19
34 35 34 30 29 34 39 41 42 43 42 41 36 30 25 25 26 16 8 20 23 18 21 22 22 25 26 29 32 32 33 32 31 31 30 29 28 28 30 29 28 27 27 30 32 31 31 30 29 30 29 27 26 24 22 22 22 22 18 13 9 8 10 11 12 11 5 6 8 10 11 8 12 32 32 25 26 23 22 21 19 19 20 20 17 16 20 22
32 34 35 33 30 29 33 36 39 39 40 44 41 36 32 25 22 21 24 28 18 14 23 25 26 27 22 22 24 26 29 31 31 31 31 32 31 32 32 31 30 27 26 33 35 34 34 35 34 32 33 33 31 27 24 23 24 23 19 16 10 5 5 6 5 4 6 9 8 6 7 13 26 43 42 38 37 32 28 22 17 17 17 16 15 19 22 20
29 31 33 35 34 31 32 33 34 34 37 41 40 42 39 23 18 33 42 33 14 10 19 24 27 28 23 22 22 22 24 26 27 28 29 31 32 33 33 32 32 29 28 31 33 32 30 33 37 37 37 37 35 33 29 26 26 26 26 23 16 7 3 5 4 1 5 11 13 11 9 15 33 44 40 32 23 14 12 12 12 13 15 16 20 21 19 17
29 29 30 31 32 32 33 34 34 33 35 39 38 41 39 27 29 42 45 40 29 17 15 18 23 25 26 27 27 26 26 26 26 26 27 30 32 34 35 34 35 34 33 29 28 29 24 22 31 37 37 38 38 37 35 33 29 29 30 29 25 20 13 6 3 3 3 3 8 12 10 13 24 29 25 17 11 9 13 20 23 22 22 23 20 16 16 18
28 29 30 30 30 30 30 32 33 32 34 37 37 36 39 37 41 44 41 44 41 28 17 14 16 21 27 29 28 28 28 28 28 28 27 29 31 32 33 34 35 36 37 31 27 28 26 25 29 28 28 32 34 35 36 35 29 27 29 30 31 33 27 14 7 9 4 2 5 13 15 26 35 38 38 33 33 35 33 34 35 30 25 19 15 15 20 20
28 29 30 30 31 30 28 29 30 30 31 34 35 36 41 42 42 41 40 42 41 36 26 16 16 21 25 28 28 28 29 29 29 29 30 31 32 33 33 32 33 35 36 36 32 27 23 27 32 28 25 27 27 28 32 32 29 27 30 35 37 35 29 19 12 12 7 3 11 16 24 39 44 45 49 46 45 43 35 32 30 22 17 16 17 21 24 22
30 31 31 30 30 30 29 29 29 29 29 30 32 34 37 39 38 38 37 37 38 39 33 23 21 23 23 25 27 28 28 29 28 29 31 31 31 35 38 36 36 36 36 37 37 32 23 22 28 27 25 26 26 25 28 30 31 31 32 36 36 29 24 20 10 5 5 5 11 17 27 36 32 34 46 46 40 36 30 27 25 20 19 20 22 25 24 22
31 32 32 31 30 29 28 29 29 29 28 28 30 31 33 34 35 34 34 35 35 36 34 27 24 25 24 23 25 26 27 28 30 30 31 30 28 31 35 37 37 37 37 35 36 36 29 21 23 23 21 22 24 25 27 30 34 36 34 30 26 17 15 19 13 5 6 5 4 14 23 29 33 40 48 45 40 39 35 31 27 23 20 18 21 25 23 23
32 32 33 32 30 29 28 28 29 30 30 30 31 32 33 36 34 31 31 32 30 31 34 31 27 26 26 25 24 25 26 29 31 31 31 30 29 31 31 30 31 32 36 37 36 36 33 24 20 23 23 21 23 28 32 34 35 36 35 30 26 21 16 19 20 13 8 5 4 9 12 22 40 49 46 43 42 38 32 27 23 17 14 14 19 24 21 23
33 33 33 32 31 31 30 28 28 30 31 34 37 36 35 35 33 30 30 30 29 28 30 31 30 28 28 29 26 24 25 28 31 32 31 30 31 33 31 28 27 27 29 34 36 37 37 30 22 21 22 22 26 32 34 36 34 34 37 35 33 32 23 18 21 21 13 4 3 4 5 23 46 47 41 40 38 34 29 24 19 14 16 21 23 21 21 25
32 34 35 33 32 32 32 30 30 32 34 37 40 40 38 37 34 31 30 29 29 29 28 28 28 28 29 30 29 27 25 26 29 31 32 32 33 31 28 26 26 26 25 27 32 34 37 36 31 27 27 29 34 36 33 34 34 34 37 37 37 40 34 18 12 21 23 12 7 4 4 29 52 48 44 43 38 36 31 22 20 20 24 28 23 19 23 27
30 33 34 33 32 33 33 33 33 34 36 38 40 40 40 40 37 33 31 29 28 29 29 28 27 26 26 27 28 28 27 26 28 30 32 34 34 32 27 22 21 23 25 26 28 29 32 35 34 35 38 38 37 35 32 32 33 34 36 37 39 42 42 27 10 14 22 20 21 14 8 33 56 50 47 47 39 36 30 26 29 28 24 23 22 21 23 28
29 30 31 30 31 32 31 32 35 37 39 40 40 39 39 40 39 37 34 32 30 29 30 31 31 29 28 27 27 27 28 28 28 31 33 33 35 34 31 27 24 22 22 24 25 25 28 31 30 31 35 36 35 35 35 33 31 34 38 41 41 41 41 35 24 19 16 16 23 14 7 35 58 50 47 48 40 34 31 33 37 32 23 19 21 25 25 30
29 28 29 28 27 29 32 34 37 40 42 43 40 38 39 40 40 39 37 35 33 32 31 32 32 31 30 30 28 28 28 28 29 32 34 35 37 36 33 32 30 26 23 22 21 22 24 29 27 19 15 18 22 25 29 35 34 34 37 38 39 40 40 37 36 29 17 19 28 15 10 39 58 51 48 47 39 35 33 33 32 28 28 27 25 27 27 32
30 28 29 28 26 29 34 37 38 39 41 43 42 41 41 39 39 40 40 37 35 33 32 33 32 31 30 29 29 29 29 29 28 30 32 36 38 38 37 35 33 31 28 23 21 22 21 24 26 20 12 11 13 14 20 30 35 36 39 40 39 41 40 39 38 28 20 31 40 28 25 47 59 54 52 51 46 44 39 34 31 29 30 31 29 28 29 34
32 30 30 30 30 32 34 36 37 38 39 40 40 42 43 41 39 40 39 37 36 36 35 35 33 30 29 29 29 30 31 32 30 29 30 32 34 34 35 34 33 33 32 29 28 27 24 24 27 29 28 28 29 27 23 24 27 31 37 39 40 41 41 41 37 31 33 40 43 43 46 54 60 58 56 55 53 50 44 37 37 37 33 31 30 30 32 36
34 33 33 31 32 35 38 38 37 39 40 40 39 41 44 44 41 38 37 37 37 37 36 36 34 33 32 32 32 32 32 32 31 32 34 33 32 30 30 31 31 30 30 29 28 28 29 31 32 34 36 38 41 36 28 26 27 29 30 31 33 34 38 43 41 41 45 38 35 50 56 52 57 62 58 56 55 53 50 44 37 34 31 29 29 31 34 36
37 36 35 32 31 33 38 41 40 39 40 41 40 40 41 43 42 38 36 36 37 37 35 34 35 36 37 36 34 33 33 32 32 34 36 36 34 32 31 31 29 29 28 26 26 27 28 31 35 36 38 41 43 40 36 34 33 33 32 33 33 31 33 40 43 46 49 42 41 54 56 50 57 63 60 57 54 53 54 50 41 35 30 27 29 31 35 35
39 37 36 34 33 32 33 36 41 42 41 41 41 41 41 42 43 43 39 36 35 35 35 36 37 37 36 34 34 35 35 33 34 37 38 38 37 35 34 33 32 32 30 28 28 28 27 30 33 34 36 40 41 41 42 41 40 39 38 37 36 34 35 41 45 47 49 48 49 52 52 54 60 61 61 58 53 53 55 52 48 44 36 31 32 35 37 38
40 40 37 36 37 35 32 33 39 44 44 41 40 41 41 41 41 41 40 39 38 36 36 38 41 39 36 34 34 36 36 35 37 39 38 38 39 38 37 36 34 32 31 31 31 30 31 34 36 34 34 36 39 39 39 40 42 44 43 40 39 41 44 47 50 49 45 47 51 51 52 60 63 61 62 60 55 57 58 56 55 52 48 44 43 44 45 47
42 41 38 36 36 37 36 35 36 41 46 45 42 42 43 42 42 38 36 36 36 35 36 39 40 38 36 36 37 38 38 37 38 39 37 38 39 38 38 37 35 32 32 32 33 34 35 37 38 33 29 34 42 41 38 40 42 43 44 45 46 50 52 51 49 48 48 50 51 49 52 59 61 59 60 59 58 60 60 59 58 56 55 54 51 51 52 51
43 41 40 38 36 37 37 37 37 39 43 44 45 47 45 43 42 40 37 35 33 32 33 34 34 35 35 37 38 38 38 38 38 38 37 36 37 38 38 38 37 35 35 33 33 37 37 36 38 32 25 33 42 39 38 38 29 29 41 47 49 53 54 52 52 53 56 55 51 50 55 58 57 56 59 60 60 60 60 60 58 56 56 54 52 52 49 46
Wind_Direction
199 199 197 196 194 192 190 189 188 188 187 186 185 185 185 185 186 185 184 181 180 179 178 177 176 174 173 175 176 174 174 173 174 177 179 180 179 180 181 180 181 182 182 185 186 183 183 184 186 189 189 193 197 201 204 207 210 214 219 224 231 238 243 247 244 236 238 241 231 222 222 212 199 192 190 190 190 193 195 192 190 193 196 194 191 195 202 208
200 201 202 199 197 196 194 192 192 191 189 189 188 188 188 187 187 187 186 184 183 182 181 180 178 177 176 178 179 178 178 178 179 182 183 182 183 184 185 185 185 186 186 187 189 188 188 188 191 193 194 196 198 202 206 209 213 218 223 228 234 241 245 242 232 230 237 239 238 230 221 214 205 200 199 196 197 199 196 196 196 198 201 200 198 198 202 208
202 202 203 202 200 199 198 197 196 194 192 191 191 190 190 190 190 189 188 187 186 185 183 181 180 179 179 182 182 181 182 183 184 187 187 185 186 188 188 189 189 188 189 190 192 193 191 192 195 197 200 201 202 204 207 210 215 220 225 231 237 239 239 238 235 237 239 237 239 233 221 221 218 215 209 201 205 204 197 198 197 199 203 202 202 201 202 207
203 204 204 204 203 202 201 201 199 197 195 194 194 193 192 192 193 192 190 189 188 187 185 183 181 180 182 185 184 184 186 187 190 192 190 189 190 191 190 191 191 189 190 190 193 195 193 195 198 201 204 205 207 208 209 213 216 220 225 230 234 234 234 237 239 241 238 236 237 231 231 235 233 228 215 206 205 198 198 200 196 200 205 203 203 204 206 209
203 203 205 205 205 204 203 202 201 200 198 198 197 195 195 195 194 194 193 192 190 190 188 185 182 183 185 187 186 187 187 191 196 195 193 194 194 193 192 192 191 189 189 189 192 195 195 196 198 201 203 205 209 211 213 215 217 220 224 228 230 229 232 235 237 240 236 236 233 229 238 241 242 238 225 216 198 192 202 202 196 201 205 202 205 210 214 217
201 201 203 204 205 204 204 203 201 201 201 200 200 199 198 197 196 195 194 193 192 191 189 186 185 185 188 189 189 189 187 191 197 196 196 196 196 195 193 192 190 188 187 188 191 192 194 196 196 198 200 202 206 209 211 213 215 218 222 225 225 226 229 230 233 234 231 232 228 230 240 246 251 246 236 225 194 197 208 204 200 206 207 205 209 215 220 223
199 200 202 203 203 204 204 203 201 201 201 201 201 201 200 199 198 196 195 194 193 192 190 188 187 187 189 190 190 191 190 192 196 196 197 196 196 194 192 191 188 186 185 187 189 190 192 194 194 195 198 202 206 207 208 210 211 214 220 221 222 223 224 226 227 227 228 228 229 234 243 252 257 250 242 214 196 211 216 210 212 216 218 217 217 220 223 227
199 200 201 202 202 203 204 204 204 202 201 201 201 201 200 200 199 198 196 194 193 191 190 189 189 189 190 191 191 192 192 194 196 196 197 196 193 191 190 189 186 184 185 186 188 190 190 192 193 196 202 207 208 207 206 207 208 212 217 218 219 222 222 224 222 222 225 227 233 240 244 250 256 256 246 186 204 226 226 220 222 225 227 229 228 227 227 230
200 200 200 201 201 201 203 203 204 204 202 201 201 202 201 200 200 199 197 195 193 191 190 190 190 191 191 192 192 193 194 195 194 193 195 193 190 188 187 187 185 185 185 186 188 189 189 191 194 198 204 209 208 207 205 203 205 209 213 216 218 221 221 222 220 222 226 230 237 242 247 253 258 261 249 198 218 236 237 230 230 231 233 235 236 237 236 237
200 200 199 200 201 201 202 202 203 204 203 202 202 201 201 201 200 199 198 196 193 191 190 191 191 191 192 193 193 194 195 196 195 192 191 191 189 188 186 184 184 184 185 186 188 189 190 190 194 198 202 206 204 204 202 199 203 204 205 211 213 219 224 226 225 227 231 236 245 249 254 259 260 263 251 217 226 236 240 238 237 239 241 240 242 243 244 244
204 202 200 201 201 202 201 201 202 202 202 202 202 202 201 201 200 200 199 196 193 191 191 192 192 192 193 194 195 197 197 197 197 195 191 188 187 187 187 185 183 184 185 186 187 189 190 191 195 196 198 203 200 200 201 200 202 201 201 207 213 221 228 230 230 233 238 243 251 256 258 259 259 262 233 216 229 235 239 243 245 249 251 250 249 248 248 248
208 206 204 203 203 203 203 202 202 201 201 202 202 202 201 201 201 199 198 195 193 192 193 193 193 193 193 195 196 198 200 199 197 195 194 191 187 188 189 187 186 186 186 187 188 190 191 194 196 196 198 201 197 197 202 202 202 203 205 208 217 227 232 235 234 234 239 244 251 259 264 262 258 252 215 226 237 243 248 253 254 255 254 255 255 255 255 252
209 209 208 207 206 205 205 205 204 203 202 201 202 202 201 201 200 199 197 195 193 193 194 194 194 194 193 196 199 199 201 200 198 196 196 195 192 192 192 192 191 190 189 189 189 191 194 196 197 199 200 199 197 198 203 204 204 208 213 216 223 234 241 242 242 242 243 246 250 256 263 264 260 241 229 237 244 249 255 258 259 257 255 257 258 260 261 259
209 209 209 208 208 207 207 206 206 206 204 202 201 201 201 200 199 198 196 194 194 195 196 195 195 195 195 198 201 202 201 200 200 198 197 198 198 198 197 197 197 196 194 192 192 193 195 197 199 201 201 201 201 203 205 202 204 210 219 228 230 234 245 247 248 248 246 248 251 254 259 262 261 250 242 243 249 252 255 257 259 260 259 260 261 261 261 261
209 209 209 208 208 207 206 205 205 205 205 203 201 200 200 200 199 197 196 196 197 197 197 197 196 195 197 201 202 203 204 202 201 200 200 201 201 201 202 200 201 201 199 197 197 196 198 199 200 202 204 205 203 205 206 204 211 214 219 234 235 233 244 251 248 247 247 249 251 252 257 262 259 253 249 248 253 255 256 258 259 260 261 261 261 261 261 261
209 208 207 207 206 205 204 203 202 203 203 202 201 201 201 200 200 198 198 199 199 200 199 198 197 197 199 204 205 205 205 204 204 203 203 203 204 204 204 204 204 205 203 202 202 202 202 203 204 206 207 207 207 208 208 214 223 222 223 234 240 239 245 251 248 248 250 251 252 251 256 261 260 259 262 261 263 263 261 259 260 261 261 261 262 264 264 265
208 206 205 204 203 203 202 200 200 200 201 201 201 201 201 202 202 202 202 203 203 203 202 201 200 200 203 208 207 205 206 206 207 207 205 205 206 206 206 207 207 208 208 206 206 206 206 206 208 211 211 212 212 208 207 218 227 229 232 237 244 247 246 249 251 254 255 255 257 257 260 263 263 266 269 269 267 266 264 263 262 264 265 267 269 270 271 270
205 204 201 200 200 199 199 199 199 200 201 201 202 203 203 204 205 206 206 207 206 205 205 205 203 203 209 212 208 206 207 207 208 209 209 209 208 209 209 209 211 212 212 212 211 211 211 212 212 214 215 216 216 213 213 222 226 228 232 236 241 245 247 251 255 258 260 261 262 264 267 268 268 267 267 268 267 265 264 263 263 265 269 272 275 276 276 273
202 201 199 197 197 197 198 199 199 200 202 203 204 204 204 205 206 207 208 209 208 207 208 209 207 207 214 215 211 209 209 209 211 211 212 212 211 212 212 214 216 217 217 218 218 217 217 217 215 215 218 220 222 219 222 231 231 227 232 237 240 246 255 260 262 264 266 268 267 268 271 272 271 267 264 265 266 266 266 266 267 269 271 273 276 278 277 275
199 199 199 197 196 197 198 199 200 202 203 204 205 205 205 205 205 207 208 209 210 211 212 213 213 213 216 216 213 212 211 211 213 213 214 214 214 215 216 217 219 220 220 221 223 224 223 223 222 220 222 226 222 216 222 229 231 232 237 243 250 257 263 267 269 268 271 273 270 269 272 271 270 270 267 261 261 266 271 273 274 273 273 274 275 278 279 279
200 199 199 198 199 200 200 200 203 204 205 207 207 208 209 207 207 208 209 210 212 213 214 216 216 216 217 217 214 214 213 213 214 215 216 216 216 217 218 218 220 222 222 222 226 227 227 229 226 224 227 226 219 220 225 229 232 238 242 248 257 261 264 271 273 271 273 274 272 273 273 269 269 272 268 261 260 265 271 273 274 274 274 275 278 281 281 278
202 202 202 202 202 204 206 206 206 206 208 209 210 212 212 210 211 211 211 212 213 214 214 215 216 216 217 217 216 215 213 214 216 217 218 219 218 219 221 220 220 223 224 224 227 230 232 233 229 229 233 230 224 227 232 236 237 239 243 251 257 260 268 275 275 276 277 277 277 280 279 272 270 272 269 267 267 266 268 269 270 271 272 275 279 281 277 272
208 206 205 205 206 208 211 210 210 211 210 211 212 213 213 213 215 215 214 215 216 216 215 215 215 216 217 217 218 218 216 216 217 218 220 220 220 221 223 222 223 225 225 226 228 231 235 235 231 233 237 233 228 229 233 235 236 237 243 251 254 258 271 279 279 281 281 283 284 286 286 279 273 272 271 271 272 271 270 269 269 270 272 276 278 276 273 272
218 214 210 207 206 209 213 214 215 215 214 215 214 214 215 215 216 217 219 221 222 220 218 217 215 216 217 217 218 220 219 218 217 218 219 220 221 222 224 224 225 227 227 228 230 234 237 235 233 237 238 234 229 229 231 234 237 241 244 246 251 261 271 277 280 285 288 288 288 293 293 285 279 276 274 272 271 272 272 271 271 272 274 277 273 271 273 275
220 221 219 213 208 208 210 213 215 217 218 219 219 218 218 218 219 221 223 228 232 227 221 221 221 219 218 219 220 220 221 221 219 219 220 220 221 223 224 224 225 227 227 229 231 235 236 233 233 237 237 231 229 231 231 233 238 242 243 246 257 268 273 277 282 290 294 291 291 297 299 286 282 280 276 276 273 270 272 272 274 277 277 275 271 272 276 280
218 221 222 221 217 213 212 213 214 216 219 221 223 223 222 223 223 224 226 236 242 235 226 225 224 222 220 220 220 221 225 227 223 222 224 222 222 224 225 225 226 228 227 228 233 236 235 232 231 233 231 228 228 226 222 223 234 245 251 257 264 268 272 277 281 288 288 288 291 291 284 279 284 281 276 277 276 272 272 274 279 282 276 271 270 275 281 284
216 218 220 222 224 222 221 221 220 221 223 225 226 225 226 226 226 226 227 243 254 240 232 228 226 225 223 222 221 220 226 229 224 223 225 225 226 226 227 228 228 229 227 227 232 237 235 231 229 229 229 232 233 228 224 229 242 254 260 264 266 267 270 273 279 282 283 288 289 285 278 275 281 280 278 278 277 274 272 276 282 278 269 267 270 276 281 287
218 218 218 219 223 225 226 227 228 229 230 231 230 230 228 226 225 224 218 222 253 239 232 230 228 228 227 225 223 222 226 230 225 224 225 226 228 228 230 232 232 234 234 232 236 241 241 235 232 231 232 236 239 238 238 241 249 257 263 266 263 264 267 271 279 280 284 291 286 278 276 273 277 281 282 281 277 275 277 280 278 268 264 267 271 275 281 289
216 217 218 218 220 223 225 227 229 231 234 234 233 232 227 224 220 212 199 211 234 231 229 226 225 227 227 226 224 225 229 231 229 228 227 226 228 230 232 233 233 235 236 236 241 245 245 239 235 234 236 239 243 244 243 242 249 255 259 259 257 261 267 271 276 274 280 284 271 268 269 272 284 284 282 278 276 277 280 276 270 267 269 271 272 273 279 288
220 214 215 219 221 221 222 225 228 230 233 233 233 231 226 222 211 193 170 225 227 226 223 220 220 222 224 224 224 226 230 232 232 232 232 230 229 231 233 234 233 234 236 238 241 243 244 241 236 235 238 240 243 243 239 237 241 247 247 245 248 259 266 268 267 265 272 270 260 265 268 239 284 285 282 278 278 280 279 272 267 271 274 273 270 268 279 288
233 222 214 213 217 220 221 223 226 229 232 232 231 229 225 219 206 187 206 229 228 230 222 217 221 222 222 224 225 227 229 231 232 231 233 233 231 231 230 229 228 230 235 237 239 241 242 241 239 238 239 240 241 239 236 233 233 237 238 233 237 251 259 262 258 247 236 251 256 269 261 199 239 272 276 278 280 283 284 277 268 269 268 263 263 273 285 288
237 233 227 222 220 219 217 218 220 223 229 232 231 229 223 214 202 203 223 229 234 239 224 222 227 225 223 223 225 229 230 231 232 230 232 233 233 234 232 231 229 225 230 235 236 239 241 241 241 241 241 240 239 236 232 229 229 232 232 225 218 219 241 238 224 222 224 238 254 252 217 210 244 264 272 278 282 285 283 275 266 264 252 245 267 285 285 282
233 234 235 235 235 230 223 221 218 215 219 225 229 228 220 212 211 219 223 224 227 234 223 225 231 229 227 225 224 228 229 232 233 230 232 233 235 238 237 238 236 231 233 237 235 236 241 244 241 239 240 238 237 234 230 229 228 230 230 223 210 190 212 228 200 264 260 242 244 232 206 235 260 270 276 277 280 280 268 265 269 261 248 261 280 280 277 276
227 229 231 233 235 234 232 230 227 223 218 216 220 216 206 207 225 225 225 225 225 230 227 221 223 222 223 226 226 225 225 228 229 227 227 228 231 235 235 235 235 234 237 239 238 234 236 243 242 239 239 240 241 239 239 242 241 240 239 232 223 217 220 228 191 201 252 228 215 203 200 240 257 265 269 263 253 252 267 279 284 280 277 282 277 270 284 277
224 225 226 227 228 228 229 229 228 228 221 217 217 204 194 205 221 222 224 225 223 226 225 207 208 212 214 220 223 222 222 225 227 225 224 226 229 232 234 234 233 233 233 232 236 236 234 243 248 245 242 243 244 243 243 242 240 241 238 229 228 231 232 239 247 238 230 68 208 207 224 249 256 262 266 266 269 274 279 282 285 287 285 278 266 281 301 280
228 226 225 225 225 224 223 223 224 225 222 220 216 204 201 212 218 218 222 225 224 226 223 203 199 206 209 214 217 216 218 222 225 225 224 227 231 234 236 237 237 236 234 231 231 231 231 243 249 246 244 242 239 240 239 234 231 231 226 223 228 235 234 233 249 253 242 263 252 236 246 259 265 270 269 269 273 276 278 280 283 283 272 266 274 294 304 282
230 230 229 227 226 224 221 219 222 225 226 224 220 216 218 223 223 220 222 224 225 226 223 212 207 211 211 212 215 214 214 217 221 224 226 227 231 235 236 237 238 238 239 236 233 233 233 243 249 245 243 241 236 234 233 231 230 226 223 227 232 235 233 228 233 252 225 242 257 243 249 259 264 268 269 270 275 276 278 282 283 276 270 275 285 298 304 281
231 231 231 230 229 227 224 220 221 224 227 228 228 230 233 233 232 229 227 226 226 225 223 219 217 221 220 217 218 216 213 216 219 221 225 226 231 239 238 237 239 239 241 238 233 235 236 242 251 248 241 239 234 228 225 225 226 225 228 233 229 223 220 215 210 221 227 219 253 248 252 257 256 260 268 272 275 279 282 283 281 280 278 279 290 302 300 275
231 232 231 229 229 229 227 225 223 223 225 228 231 234 237 238 236 233 231 230 229 227 226 226 223 223 224 224 225 222 219 222 223 222 224 226 232 241 241 239 241 240 241 239 235 235 236 238 249 247 239 233 226 222 222 223 221 221 227 232 229 226 218 210 210 216 228 215 235 256 258 261 261 264 270 275 277 280 282 280 281 283 273 270 291 299 287 267
232 232 232 229 227 227 227 227 226 225 224 227 231 233 236 238 237 234 233 232 230 229 230 232 231 226 226 228 229 227 225 227 229 227 227 229 235 243 244 241 241 241 240 239 237 236 234 234 241 244 235 224 223 228 231 232 229 223 224 226 226 226 220 221 223 221 223 228 240 255 264 264 266 269 273 276 278 279 280 280 277 270 269 282 293 285 267 261
233 232 233 230 226 226 224 222 223 225 226 228 232 234 236 238 238 236 235 234 232 232 233 235 235 231 230 230 230 230 227 225 229 229 230 233 236 242 245 243 243 243 241 238 237 235 232 233 236 238 235 232 237 243 245 244 242 238 236 236 237 232 223 221 228 222 223 226 230 226 266 267 267 270 273 275 277 278 278 276 272 270 281 292 289 264 254 255
233 231 232 231 227 226 223 221 222 224 228 230 231 234 237 238 239 238 237 236 234 235 236 236 235 232 231 231 231 231 228 227 229 229 231 235 237 239 241 241 241 242 243 241 241 241 237 234 234 237 241 245 248 250 248 247 245 242 241 243 244 237 226 217 212 223 223 224 235 239 256 265 265 267 271 273 275 276 275 273 277 282 286 292 286 269 255 249
233 231 231 230 227 225 222 221 223 225 230 232 233 235 238 239 240 239 238 237 235 235 235 235 234 233 233 233 230 228 227 227 229 230 232 235 239 239 238 238 238 236 237 237 241 242 233 228 230 238 246 250 251 251 250 248 244 237 236 237 237 236 232 227 229 239 231 219 230 231 237 260 263 265 267 271 273 274 275 277 281 284 282 283 288 279 258 241
233 231 229 224 221 223 222 220 222 224 228 232 233 235 237 240 242 240 238 238 236 234 233 234 235 233 233 233 232 231 230 229 230 232 234 236 239 239 238 239 238 234 232 234 239 239 229 225 227 232 247 251 248 249 244 240 237 234 236 238 237 240 240 234 233 237 241 238 237 230 233 256 262 265 266 269 272 274 276 277 278 281 282 285 286 277 258 240
232 229 227 220 211 216 224 224 225 227 228 231 233 235 236 238 241 241 241 242 240 237 235 237 238 238 236 235 237 239 239 239 237 238 240 240 241 241 240 240 239 237 237 239 243 244 239 235 230 223 222 231 232 234 236 238 237 236 240 243 241 240 237 235 233 229 234 246 243 235 243 257 262 265 266 269 272 273 274 274 274 276 282 287 282 271 258 243
229 226 224 217 207 210 222 226 226 228 229 231 233 235 236 238 240 241 242 242 242 241 239 239 240 240 239 238 238 240 242 242 242 243 245 245 245 246 244 243 243 242 242 245 248 247 245 243 238 234 233 239 244 249 253 253 246 241 245 247 245 242 239 237 232 226 234 245 245 243 249 258 263 264 266 268 270 271 272 272 275 277 281 284 278 268 256 240
227 226 226 220 208 207 216 222 225 227 229 230 231 234 236 236 238 241 241 242 244 244 243 243 242 240 239 238 237 238 240 242 244 245 245 246 247 248 247 245 245 245 247 249 250 248 244 242 243 242 241 245 250 254 259 265 263 259 259 257 252 249 244 236 232 237 244 241 243 251 252 254 262 265 265 266 268 271 271 271 274 279 282 279 271 259 242 231
224 226 228 224 216 212 215 221 226 229 229 228 229 232 235 236 236 237 238 240 242 243 243 243 243 242 242 241 240 239 239 239 242 244 244 245 245 245 247 247 247 249 253 253 251 249 245 245 248 247 247 251 254 254 256 259 262 264 264 262 260 256 249 241 241 248 248 237 241 256 258 256 262 265 265 265 269 272 273 274 274 275 276 269 257 245 232 230
224 226 225 222 222 222 220 221 225 227 228 229 229 231 233 235 236 237 237 237 237 239 240 241 243 244 244 243 241 241 239 237 239 242 245 247 247 249 253 254 252 254 256 254 252 253 249 251 257 255 252 257 259 258 257 255 254 258 260 260 261 258 256 254 254 256 255 249 252 260 264 264 263 263 264 267 271 273 273 273 273 272 269 261 251 245 239 240
225 226 225 221 221 223 222 220 220 223 226 227 230 232 233 234 236 237 238 237 237 237 238 241 245 247 248 247 243 242 243 243 244 246 248 249 250 252 255 257 257 258 257 253 252 255 254 257 265 262 255 258 262 260 258 255 252 255 256 256 258 258 257 256 256 256 256 255 257 259 262 264 264 263 265 268 270 272 272 272 272 273 271 267 262 258 254 255
227 227 224 222 222 223 223 222 220 221 223 222 225 232 234 234 235 237 237 237 238 239 240 243 246 248 250 251 249 249 251 252 253 254 253 252 253 256 259 260 262 260 257 255 252 252 252 254 260 257 246 253 261 262 261 259 254 252 253 254 254 254 253 252 253 254 253 252 254 254 254 260 266 269 270 271 270 271 272 273 275 277 277 275 273 270 267 267
226 225 222 221 222 222 222 223 222 221 223 224 225 230 233 234 235 235 236 237 238 238 239 242 245 247 248 249 250 253 254 253 254 255 255 254 256 258 259 260 262 259 256 255 254 252 250 248 251 247 236 249 260 261 261 260 253 245 249 254 255 255 255 254 254 256 255 251 250 251 256 265 274 277 276 274 273 273 275 278 280 282 282 280 279 277 274 272
Height
3131 3133 3134 3136 3137 3139 3141 3142 3144 3145 3146 3148 3150 3151 3153 3154 3156 3158 3159 3161 3162 3163 3165 3166 3167 3169 3170 3171 3173 3174 3175 3176 3177 3178 3178 3179 3180 3181 3182 3182 3183 3184 3185 3185 3186 3187 3188 3188 3189 3190 3191 3191 3192 3193 3194 3195 3196 3197 3198 3198 3199 3199 3200 3201 3201 3201 3201 3201 3202 3202 3201 3201 3201 3202 3202 3202 3202 3202 3202 3202 3203 3203 3203 3203 3203 3203 3203 3204
3130 3132 3133 3135 3137 3138 3140 3141 3142 3144 3145 3147 3148 3150 3152 3153 3155 3157 3159 3160 3161 3163 3164 3165 3167 3168 3169 3171 3172 3173 3174 3175 3176 3177 3178 3179 3180 3180 3181 3182 3183 3184 3184 3185 3186 3187 3187 3188 3189 3190 3190 3191 3192 3193 3194 3195 3195 3196 3197 3198 3198 3198 3199 3200 3200 3200 3201 3201 3201 3201 3201 3201 3201 3201 3201 3201 3201 3201 3201 3202 3202 3202 3202 3202 3202 3203 3203 3203
3128 3130 3132 3134 3136 3137 3139 3140 3141 3143 3144 3146 3147 3149 3151 3152 3154 3156 3158 3159 3161 3162 3163 3165 3166 3167 3169 3171 3172 3173 3174 3175 3175 3176 3177 3178 3179 3180 3181 3182 3182 3183 3184 3185 3185 3186 3187 3188 3188 3189 3190 3191 3192 3192 3193 3194 3195 3195 3196 3197 3197 3197 3198 3199 3199 3199 3200 3200 3200 3200 3200 3200 3200 3200 3200 3200 3200 3200 3201 3201 3201 3201 3201 3201 3202 3202 3202 3202
3127 3129 3131 3133 3135 3136 3138 3139 3140 3142 3143 3145 3146 3148 3150 3151 3153 3155 3157 3158 3160 3161 3163 3164 3165 3167 3169 3170 3172 3172 3173 3174 3175 3175 3177 3177 3178 3179 3180 3181 3182 3183 3183 3184 3185 3186 3186 3187 3188 3189 3190 3190 3191 3192 3192 3193 3194 3195 3195 3196 3196 3197 3197 3197 3198 3198 3199 3199 3199 3199 3199 3199 3199 3199 3199 3199 3199 3200 3200 3200 3200 3200 3200 3201 3201 3201 3201 3201
3126 3128 3130 3132 3133 3135 3136 3138 3139 3141 3142 3144 3145 3147 3149 3150 3152 3154 3155 3157 3159 3160 3162 3163 3165 3166 3168 3170 3171 3172 3173 3174 3174 3175 3176 3177 3178 3179 3180 3181 3181 3182 3183 3183 3184 3185 3186 3187 3187 3188 3189 3190 3190 3191 3192 3192 3193 3194 3194 3195 3195 3196 3196 3196 3197 3197 3198 3198 3198 3198 3198 3198 3198 3198 3199 3199 3199 3199 3199 3199 3200 3200 3200 3200 3201 3201 3201 3201
3124 3126 3127 3129 3131 3133 3134 3136 3138 3139 3141 3143 3144 3146 3148 3149 3151 3152 3154 3156 3158 3159 3161 3163 3164 3166 3167 3169 3170 3171 3172 3173 3173 3174 3175 3176 3177 3178 3179 3180 3181 3181 3182 3183 3183 3184 3185 3186 3187 3188 3188 3189 3189 3190 3191 3191 3192 3193 3193 3193 3194 3195 3195 3195 3196 3196 3197 3197 3197 3197 3197 3197 3197 3197 3197 3198 3198 3198 3198 3199 3199 3199 3199 3199 3200 3200 3200 3200
3122 3123 3125 3127 3129 3131 3133 3134 3136 3138 3139 3141 3143 3145 3146 3148 3150 3151 3153 3154 3156 3158 3160 3162 3163 3165 3167 3168 3169 3170 3171 3171 3172 3173 3174 3175 3176 3177 3178 3179 3180 3180 3181 3182 3183 3184 3184 3185 3186 3187 3188 3188 3189 3189 3190 3190 3191 3192 3192 3193 3193 3194 3194 3195 3195 3195 3196 3196 3196 3196 3196 3196 3196 3196 3196 3197 3197 3197 3197 3198 3198 3198 3198 3198 3199 3199 3199 3199
3120 3122 3124 3126 3128 3130 3132 3133 3135 3136 3138 3140 3142 3143 3145 3147 3148 3150 3152 3153 3155 3157 3159 3161 3162 3164 3166 3167 3168 3169 3170 3171 3171 3172 3173 3174 3175 3176 3177 3178 3179 3179 3180 3181 3182 3183 3184 3185 3186 3186 3187 3187 3188 3188 3189 3189 3190 3191 3191 3192 3192 3193 3193 3194 3194 3195 3195 3195 3195 3195 3196 3195 3195 3195 3195 3196 3195 3195 3196 3196 3196 3197 3197 3197 3197 3198 3198 3198
3119 3121 3123 3124 3126 3128 3130 3132 3134 3135 3137 3139 3140 3142 3144 3145 3147 3149 3150 3152 3154 3156 3158 3160 3161 3163 3165 3166 3167 3168 3169 3170 3171 3172 3173 3174 3174 3175 3176 3177 3178 3178 3179 3180 3181 3182 3183 3184 3185 3186 3186 3187 3187 3188 3188 3189 3189 3190 3190 3191 3192 3192 3193 3193 3194 3194 3194 3194 3195 3195 3195 3194 3194 3194 3194 3194 3194 3194 3194 3195 3195 3195 3196 3196 3196 3196 3196 3196
3119 3120 3122 3123 3125 3127 3129 3131 3132 3134 3136 3138 3139 3141 3142 3144 3146 3148 3149 3151 3153 3155 3157 3158 3160 3162 3164 3165 3166 3167 3168 3169 3170 3171 3172 3173 3174 3175 3175 3176 3177 3178 3178 3179 3180 3181 3182 3183 3184 3185 3185 3186 3187 3187 3188 3188 3189 3189 3190 3190 3191 3191 3192 3192 3193 3193 3193 3194 3194 3194 3193 3193 3193 3192 3193 3193 3192 3193 3193 3193 3194 3194 3194 3194 3194 3194 3194 3195
3118 3119 3121 3122 3124 3125 3127 3129 3131 3133 3134 3136 3138 3139 3141 3143 3144 3146 3148 3150 3152 3154 3155 3157 3159 3161 3163 3164 3165 3166 3167 3168 3169 3170 3171 3172 3173 3174 3175 3175 3176 3177 3178 3178 3179 3180 3181 3182 3183 3184 3185 3185 3186 3186 3187 3187 3188 3188 3189 3189 3190 3190 3191 3191 3192 3192 3193 3193 3193 3192 3192 3192 3191 3191 3191 3191 3191 3191 3192 3192 3192 3192 3192 3193 3193 3193 3193 3193
3116 3118 3119 3121 3123 3124 3126 3127 3129 3131 3133 3135 3136 3138 3140 3141 3143 3145 3147 3149 3151 3153 3154 3156 3158 3160 3161 3163 3164 3165 3166 3167 3168 3169 3170 3171 3172 3173 3174 3175 3175 3176 3177 3178 3179 3179 3180 3181 3182 3183 3184 3184 3185 3186 3186 3186 3187 3188 3188 3189 3189 3189 3190 3190 3191 3191 3192 3192 3192 3191 3191 3189 3189 3190 3190 3190 3190 3190 3190 3190 3191 3191 3191 3191 3191 3191 3191 3191
3115 3116 3118 3119 3121 3123 3125 3126 3128 3130 3131 3133 3135 3137 3138 3140 3142 3144 3146 3148 3150 3152 3153 3155 3157 3159 3160 3161 3162 3164 3165 3166 3167 3168 3169 3170 3171 3172 3173 3174 3175 3175 3176 3177 3178 3179 3179 3180 3181 3182 3183 3183 3184 3184 3185 3186 3186 3187 3187 3188 3189 3189 3189 3189 3190 3190 3190 3190 3190 3190 3189 3187 3188 3189 3189 3188 3188 3188 3189 3189 3189 3189 3189 3189 3189 3188 3188 3188
3113 3114 3116 3118 3119 3121 3123 3125 3127 3129 3130 3132 3134 3135 3137 3139 3141 3143 3145 3147 3149 3151 3152 3154 3156 3158 3159 3160 3161 3162 3164 3165 3166 3167 3167 3169 3170 3171 3172 3173 3174 3174 3175 3176 3177 3177 3178 3179 3180 3181 3182 3182 3183 3183 3184 3185 3185 3186 3187 3187 3188 3188 3188 3188 3189 3189 3189 3189 3189 3189 3187 3186 3187 3187 3187 3187 3187 3187 3187 3187 3187 3187 3187 3187 3186 3186 3186 3186
3111 3113 3114 3116 3118 3120 3121 3123 3125 3127 3129 3131 3133 3135 3136 3138 3140 3142 3144 3146 3148 3149 3151 3153 3155 3156 3158 3158 3159 3161 3162 3163 3164 3165 3166 3167 3168 3170 3171 3172 3173 3173 3174 3175 3176 3177 3177 3178 3179 3180 3181 3181 3182 3183 3183 3184 3184 3185 3186 3186 3186 3187 3187 3187 3187 3187 3188 3188 3187 3187 3185 3184 3185 3185 3185 3186 3185 3185 3185 3185 3185 3185 3185 3184 3184 3184 3184 3184
3109 3111 3112 3114 3116 3118 3120 3122 3124 3126 3128 3130 3132 3134 3135 3137 3139 3141 3143 3144 3146 3148 3150 3152 3153 3155 3156 3157 3157 3159 3160 3162 3163 3164 3165 3166 3167 3168 3169 3170 3171 3172 3173 3174 3175 3176 3176 3177 3178 3179 3179 3180 3181 3181 3182 3183 3183 3184 3185 3185 3185 3186 3186 3186 3186 3186 3186 3186 3185 3185 3182 3182 3184 3183 3184 3184 3183 3183 3183 3183 3183 3182 3182 3182 3181 3181 3182 3182
3107 3109 3111 3113 3114 3116 3118 3121 3123 3125 3127 3129 3131 3132 3134 3136 3138 3140 3141 3143 3145 3147 3149 3151 3152 3154 3154 3154 3155 3157 3158 3160 3161 3162 3163 3164 3166 3167 3168 3169 3170 3171 3172 3173 3174 3174 3175 3176 3177 3178 3178 3179 3179 3180 3181 3182 3182 3182 3183 3183 3184 3184 3185 3185 3184 3184 3185 3184 3183 3183 3179 3179 3182 3182 3182 3182 3181 3180 3180 3180 3180 3180 3179 3179 3179 3179 3179 3179
3106 3108 3109 3111 3113 3115 3117 3119 3121 3123 3125 3127 3129 3131 3133 3135 3137 3138 3140 3142 3144 3145 3147 3148 3150 3152 3151 3151 3153 3155 3157 3158 3159 3161 3162 3163 3164 3165 3167 3168 3169 3170 3171 3172 3173 3173 3174 3175 3176 3176 3177 3177 3178 3179 3180 3180 3180 3181 3181 3182 3183 3183 3183 3183 3183 3183 3183 3182 3181 3180 3177 3176 3179 3180 3180 3180 3178 3177 3177 3177 3177 3177 3177 3176 3176 3176 3176 3176
3104 3106 3108 3110 3112 3114 3116 3118 3120 3122 3124 3126 3128 3130 3132 3133 3135 3137 3138 3140 3142 3143 3145 3146 3147 3149 3149 3150 3152 3154 3155 3156 3157 3159 3160 3161 3163 3164 3165 3166 3167 3168 3170 3171 3171 3172 3173 3174 3174 3175 3175 3176 3177 3178 3178 3178 3179 3180 3180 3181 3181 3181 3181 3181 3182 3181 3181 3180 3179 3178 3176 3174 3176 3177 3178 3178 3176 3174 3174 3174 3174 3174 3174 3174 3174 3173 3173 3173
3102 3105 3107 3109 3111 3112 3115 3117 3119 3121 3123 3124 3126 3128 3130 3131 3133 3135 3136 3138 3140 3141 3143 3144 3145 3147 3148 3149 3151 3152 3153 3154 3155 3157 3158 3159 3161 3162 3163 3165 3166 3167 3168 3169 3170 3171 3172 3172 3173 3174 3175 3175 3176 3176 3176 3176 3177 3178 3179 3180 3180 3180 3180 3180 3180 3179 3179 3178 3176 3176 3174 3172 3172 3174 3175 3175 3173 3171 3171 3171 3171 3172 3172 3171 3171 3170 3170 3170
3101 3103 3105 3107 3110 3111 3113 3115 3117 3119 3121 3123 3125 3126 3128 3130 3131 3133 3135 3136 3138 3139 3141 3142 3143 3145 3146 3147 3149 3150 3151 3152 3153 3155 3156 3157 3159 3160 3161 3162 3164 3165 3166 3167 3168 3169 3170 3170 3172 3173 3173 3174 3174 3174 3174 3175 3176 3177 3178 3178 3178 3179 3178 3178 3178 3178 3177 3176 3174 3174 3172 3169 3170 3171 3172 3172 3171 3169 3169 3168 3168 3169 3168 3168 3168 3168 3167 3167
3099 3101 3104 3106 3108 3110 3112 3114 3116 3118 3120 3121 3123 3125 3127 3129 3130 3132 3133 3134 3135 3137 3139 3140 3141 3143 3144 3146 3147 3148 3149 3150 3152 3153 3154 3155 3157 3158 3159 3161 3162 3163 3165 3166 3166 3167 3168 3169 3170 3171 3171 3172 3173 3173 3173 3174 3175 3176 3176 3177 3177 3177 3177 3176 3176 3176 3176 3174 3172 3172 3169 3167 3167 3168 3168 3169 3168 3167 3167 3166 3165 3166 3165 3165 3165 3165 3164 3163
3097 3099 3101 3104 3106 3108 3110 3112 3114 3116 3118 3119 3121 3123 3125 3127 3129 3130 3132 3133 3134 3135 3136 3137 3139 3141 3142 3143 3145 3146 3147 3148 3150 3151 3152 3153 3155 3156 3157 3159 3160 3161 3162 3163 3164 3165 3166 3167 3169 3169 3169 3170 3171 3172 3172 3173 3173 3174 3175 3175 3176 3176 3176 3175 3174 3174 3173 3172 3171 3169 3165 3163 3164 3165 3165 3166 3165 3164 3164 3163 3162 3163 3163 3163 3162 3162 3161 3160
3094 3097 3099 3101 3104 3106 3108 3111 3113 3114 3116 3118 3120 3122 3124 3125 3127 3129 3130 3131 3131 3132 3133 3135 3136 3138 3139 3141 3142 3144 3145 3146 3148 3149 3150 3151 3153 3154 3155 3157 3158 3159 3160 3161 3163 3163 3164 3165 3166 3167 3167 3168 3169 3170 3170 3171 3172 3173 3173 3174 3174 3175 3174 3174 3173 3172 3171 3170 3169 3168 3162 3158 3160 3161 3161 3163 3162 3160 3161 3160 3160 3160 3160 3160 3159 3158 3158 3157
3092 3094 3096 3099 3102 3104 3106 3108 3110 3112 3114 3116 3118 3120 3122 3123 3125 3127 3128 3129 3128 3129 3131 3132 3133 3135 3137 3138 3139 3141 3143 3144 3146 3147 3148 3150 3151 3152 3153 3154 3155 3156 3158 3159 3161 3161 3161 3163 3164 3165 3165 3166 3167 3168 3169 3170 3171 3171 3172 3172 3173 3173 3173 3172 3172 3171 3169 3168 3167 3167 3162 3154 3154 3157 3157 3159 3158 3157 3158 3157 3157 3158 3157 3156 3155 3155 3155 3154
3088 3090 3093 3097 3099 3102 3104 3105 3107 3110 3112 3114 3116 3118 3120 3121 3124 3125 3126 3127 3124 3124 3127 3128 3130 3131 3132 3134 3135 3139 3141 3140 3143 3145 3146 3147 3148 3149 3151 3152 3153 3154 3156 3158 3158 3157 3158 3160 3162 3163 3163 3164 3165 3166 3167 3169 3169 3170 3170 3171 3172 3171 3171 3171 3171 3170 3168 3166 3164 3165 3163 3154 3149 3152 3154 3155 3154 3154 3155 3154 3154 3155 3154 3153 3152 3152 3152 3151
3085 3087 3089 3093 3096 3099 3101 3102 3105 3108 3109 3112 3114 3116 3118 3120 3122 3123 3125 3126 3121 3119 3123 3125 3125 3126 3128 3130 3133 3136 3136 3135 3139 3141 3142 3144 3146 3147 3148 3149 3151 3153 3154 3156 3155 3153 3155 3158 3160 3160 3161 3161 3162 3164 3166 3167 3168 3167 3168 3169 3170 3169 3170 3169 3169 3169 3167 3165 3162 3160 3162 3155 3144 3144 3150 3151 3150 3150 3151 3152 3152 3152 3151 3150 3149 3149 3149 3149
3082 3084 3086 3089 3092 3095 3098 3100 3102 3104 3107 3110 3112 3115 3116 3118 3120 3121 3124 3124 3117 3114 3118 3119 3121 3122 3124 3127 3130 3132 3131 3132 3136 3138 3139 3142 3143 3145 3146 3147 3150 3151 3152 3153 3151 3151 3154 3156 3157 3158 3159 3158 3159 3163 3165 3166 3166 3165 3166 3167 3167 3168 3168 3168 3168 3168 3166 3164 3159 3155 3159 3156 3140 3135 3145 3147 3145 3147 3148 3149 3150 3148 3148 3147 3147 3147 3146 3146
3078 3080 3082 3085 3088 3091 3094 3096 3099 3101 3104 3107 3109 3112 3114 3116 3118 3119 3122 3120 3111 3109 3112 3114 3116 3118 3120 3124 3126 3127 3128 3130 3134 3135 3137 3140 3140 3142 3144 3145 3148 3149 3150 3150 3149 3150 3152 3153 3155 3156 3156 3156 3158 3161 3163 3163 3163 3163 3164 3165 3165 3167 3166 3167 3167 3165 3166 3163 3156 3152 3157 3158 3139 3127 3137 3141 3140 3144 3146 3146 3146 3145 3145 3145 3144 3144 3144 3144
3074 3077 3079 3082 3084 3087 3090 3093 3096 3098 3100 3103 3106 3109 3112 3114 3115 3117 3119 3113 3106 3106 3108 3109 3112 3114 3116 3119 3122 3124 3125 3127 3131 3134 3135 3137 3138 3140 3141 3143 3145 3146 3146 3147 3147 3147 3148 3150 3152 3153 3153 3154 3156 3158 3159 3161 3161 3160 3161 3162 3164 3165 3165 3166 3164 3164 3166 3159 3152 3151 3154 3159 3145 3124 3126 3135 3135 3140 3143 3143 3144 3143 3142 3142 3141 3142 3141 3141
3070 3074 3076 3078 3080 3083 3087 3090 3093 3095 3096 3099 3102 3106 3109 3110 3112 3113 3110 3105 3103 3103 3104 3107 3109 3110 3113 3115 3118 3121 3123 3124 3128 3130 3132 3133 3135 3136 3138 3139 3141 3143 3144 3143 3143 3144 3145 3146 3148 3149 3150 3152 3153 3155 3156 3157 3158 3158 3159 3161 3163 3164 3163 3164 3162 3163 3164 3155 3149 3150 3152 3158 3148 3124 3121 3130 3131 3136 3139 3140 3141 3140 3139 3139 3139 3139 3139 3138
3067 3070 3072 3073 3076 3079 3082 3086 3088 3090 3092 3094 3098 3101 3105 3107 3107 3105 3101 3100 3102 3099 3100 3104 3105 3107 3111 3114 3116 3118 3120 3121 3123 3126 3128 3130 3131 3132 3133 3135 3137 3140 3139 3138 3139 3140 3141 3142 3144 3146 3146 3148 3149 3151 3153 3154 3155 3156 3158 3160 3162 3162 3162 3161 3158 3159 3158 3151 3149 3150 3152 3152 3139 3122 3122 3127 3128 3131 3134 3135 3137 3136 3136 3136 3136 3136 3136 3135
3064 3066 3068 3070 3072 3074 3077 3080 3082 3085 3087 3091 3092 3094 3099 3101 3098 3096 3094 3097 3098 3095 3096 3100 3102 3106 3110 3111 3114 3116 3117 3119 3120 3123 3125 3126 3128 3128 3130 3132 3133 3135 3134 3134 3136 3138 3138 3138 3139 3140 3140 3142 3144 3146 3148 3149 3151 3153 3153 3156 3157 3158 3160 3156 3154 3154 3152 3148 3147 3149 3152 3145 3129 3121 3122 3125 3126 3128 3129 3131 3133 3133 3134 3134 3134 3133 3133 3132
3062 3064 3065 3067 3069 3071 3073 3076 3078 3081 3084 3086 3086 3087 3092 3092 3088 3089 3090 3092 3093 3093 3094 3097 3099 3103 3106 3107 3110 3112 3114 3116 3117 3119 3121 3122 3123 3123 3125 3127 3128 3130 3131 3132 3133 3134 3134 3132 3131 3134 3135 3137 3139 3141 3143 3145 3148 3149 3149 3151 3151 3150 3151 3148 3148 3149 3147 3145 3146 3148 3147 3136 3123 3120 3121 3122 3124 3125 3126 3128 3129 3130 3131 3131 3130 3130 3129 3128
3058 3060 3062 3064 3066 3068 3070 3072 3075 3078 3079 3080 3080 3080 3082 3081 3080 3082 3085 3087 3090 3092 3093 3095 3098 3101 3102 3103 3106 3108 3111 3112 3113 3116 3117 3118 3119 3119 3120 3122 3123 3126 3128 3129 3128 3129 3130 3126 3126 3130 3132 3133 3136 3138 3141 3143 3145 3145 3146 3147 3145 3142 3143 3145 3145 3144 3144 3145 3144 3142 3136 3124 3119 3118 3117 3119 3120 3122 3124 3125 3126 3127 3127 3127 3126 3127 3126 3125
3054 3055 3057 3060 3062 3065 3068 3070 3071 3073 3074 3074 3074 3073 3073 3073 3074 3077 3081 3084 3087 3089 3091 3094 3096 3098 3099 3100 3102 3105 3107 3108 3110 3112 3113 3115 3115 3115 3116 3118 3119 3120 3122 3123 3123 3125 3126 3124 3124 3128 3129 3130 3133 3134 3136 3138 3140 3140 3140 3139 3137 3138 3141 3144 3143 3142 3144 3144 3138 3133 3126 3120 3119 3114 3112 3116 3117 3118 3121 3121 3122 3124 3123 3124 3124 3124 3124 3122
3049 3051 3053 3055 3058 3061 3064 3067 3068 3069 3070 3070 3069 3068 3069 3071 3073 3076 3080 3083 3084 3086 3088 3090 3093 3094 3095 3097 3098 3101 3104 3105 3107 3109 3110 3111 3111 3110 3112 3113 3115 3116 3117 3120 3121 3121 3123 3122 3121 3124 3125 3127 3129 3131 3132 3133 3134 3134 3133 3132 3134 3138 3140 3141 3142 3140 3142 3139 3131 3126 3121 3119 3119 3111 3107 3112 3114 3115 3118 3118 3119 3120 3120 3121 3121 3122 3121 3119
3045 3047 3048 3051 3054 3057 3061 3063 3065 3066 3067 3066 3065 3066 3068 3069 3071 3074 3078 3080 3082 3084 3085 3087 3089 3091 3092 3094 3095 3098 3100 3102 3103 3104 3106 3107 3106 3105 3107 3109 3111 3112 3114 3118 3119 3119 3121 3121 3120 3121 3123 3124 3126 3127 3127 3128 3129 3129 3129 3130 3134 3136 3136 3137 3138 3136 3135 3133 3127 3121 3117 3116 3114 3106 3105 3110 3111 3112 3114 3115 3115 3116 3116 3117 3118 3118 3118 3116
3041 3043 3044 3047 3051 3053 3056 3059 3061 3062 3062 3061 3062 3063 3064 3065 3068 3071 3075 3077 3079 3081 3082 3083 3086 3088 3089 3091 3093 3095 3097 3097 3099 3100 3101 3103 3102 3100 3103 3106 3108 3110 3112 3114 3115 3116 3119 3120 3118 3117 3119 3121 3122 3122 3121 3121 3123 3126 3128 3130 3131 3131 3130 3130 3129 3128 3127 3126 3123 3118 3114 3109 3105 3103 3104 3107 3109 3109 3110 3111 3112 3113 3113 3114 3115 3115 3115 3113
3037 3038 3040 3044 3047 3049 3052 3055 3057 3057 3057 3057 3058 3059 3060 3061 3064 3068 3071 3073 3076 3077 3078 3080 3083 3085 3086 3088 3090 3092 3094 3094 3095 3097 3098 3099 3098 3097 3100 3103 3105 3107 3109 3111 3112 3114 3116 3116 3115 3114 3115 3117 3116 3115 3115 3116 3119 3122 3123 3125 3125 3125 3126 3125 3124 3123 3123 3121 3120 3119 3113 3104 3100 3102 3103 3104 3105 3106 3106 3107 3109 3110 3111 3112 3112 3111 3111 3110
3032 3034 3035 3039 3043 3045 3048 3050 3051 3051 3052 3053 3054 3055 3057 3058 3061 3065 3067 3070 3072 3074 3076 3077 3079 3081 3083 3085 3087 3088 3090 3091 3092 3094 3094 3095 3095 3095 3097 3100 3102 3104 3106 3107 3108 3109 3110 3111 3111 3111 3110 3110 3109 3111 3113 3114 3116 3117 3117 3118 3118 3118 3120 3121 3120 3118 3119 3119 3118 3118 3112 3100 3095 3099 3099 3099 3101 3102 3103 3104 3105 3107 3108 3108 3108 3108 3107 3107
3028 3029 3031 3035 3039 3041 3043 3045 3046 3047 3047 3048 3050 3052 3053 3054 3058 3061 3063 3066 3068 3070 3072 3074 3076 3078 3079 3081 3083 3085 3087 3088 3089 3090 3091 3091 3091 3093 3095 3098 3100 3101 3103 3103 3104 3105 3107 3107 3107 3106 3104 3105 3107 3109 3111 3112 3112 3114 3114 3113 3113 3113 3114 3115 3114 3113 3116 3116 3115 3116 3111 3096 3090 3095 3096 3095 3097 3098 3100 3101 3102 3104 3105 3105 3105 3105 3105 3104
3024 3026 3028 3032 3035 3037 3039 3040 3042 3043 3042 3044 3047 3048 3049 3051 3054 3057 3060 3062 3064 3066 3068 3070 3072 3074 3076 3078 3080 3082 3083 3085 3085 3086 3087 3087 3088 3090 3093 3095 3097 3098 3099 3100 3100 3102 3103 3103 3104 3103 3102 3103 3105 3106 3107 3107 3108 3108 3107 3107 3109 3110 3111 3112 3113 3112 3113 3112 3111 3113 3107 3091 3085 3091 3093 3092 3093 3094 3096 3097 3098 3100 3102 3102 3103 3102 3103 3102
3020 3023 3025 3028 3031 3033 3033 3034 3036 3037 3038 3041 3043 3044 3046 3048 3049 3052 3055 3058 3060 3062 3064 3066 3068 3071 3073 3075 3076 3078 3080 3081 3082 3082 3083 3084 3084 3086 3089 3091 3093 3095 3096 3096 3097 3098 3099 3099 3100 3102 3102 3101 3101 3101 3100 3100 3101 3101 3102 3104 3106 3107 3109 3110 3111 3111 3109 3107 3107 3106 3099 3086 3082 3087 3089 3089 3090 3091 3092 3094 3095 3096 3098 3100 3100 3099 3099 3099
3016 3018 3020 3024 3027 3028 3027 3028 3031 3033 3035 3037 3039 3041 3043 3044 3045 3048 3051 3054 3056 3059 3061 3063 3065 3067 3070 3072 3073 3075 3076 3077 3079 3079 3080 3080 3080 3082 3085 3087 3089 3091 3093 3094 3094 3095 3094 3095 3096 3098 3097 3095 3093 3092 3091 3092 3096 3098 3098 3100 3101 3103 3105 3104 3107 3108 3105 3101 3100 3096 3090 3083 3081 3083 3085 3085 3087 3087 3088 3090 3091 3093 3094 3096 3096 3096 3096 3095
3011 3012 3015 3019 3022 3023 3023 3024 3027 3029 3031 3033 3035 3037 3039 3040 3041 3044 3047 3049 3052 3055 3057 3059 3061 3064 3065 3067 3069 3070 3071 3073 3075 3075 3075 3076 3076 3078 3081 3083 3085 3087 3089 3090 3091 3091 3091 3091 3091 3091 3090 3087 3086 3087 3089 3090 3092 3093 3093 3094 3096 3098 3099 3101 3103 3101 3097 3095 3092 3087 3086 3082 3076 3078 3081 3081 3082 3084 3085 3086 3088 3089 3091 3092 3093 3092 3091 3091
3005 3007 3010 3013 3016 3018 3018 3020 3022 3024 3026 3029 3030 3032 3034 3036 3038 3040 3043 3045 3048 3050 3053 3054 3056 3058 3060 3062 3064 3065 3067 3069 3070 3071 3071 3072 3074 3075 3077 3079 3081 3083 3084 3085 3086 3086 3086 3086 3086 3086 3085 3084 3084 3086 3089 3089 3089 3090 3090 3091 3092 3093 3095 3096 3094 3091 3091 3091 3083 3078 3083 3080 3073 3072 3076 3078 3079 3080 3081 3083 3085 3086 3087 3088 3088 3088 3087 3087
2999 3002 3005 3008 3010 3011 3013 3015 3016 3019 3021 3023 3025 3028 3030 3032 3034 3036 3038 3041 3044 3046 3048 3049 3050 3052 3054 3057 3060 3061 3063 3065 3066 3066 3067 3068 3070 3071 3072 3074 3077 3079 3080 3080 3080 3081 3081 3080 3081 3082 3081 3081 3082 3083 3085 3086 3086 3086 3087 3087 3088 3089 3089 3088 3086 3084 3085 3082 3076 3075 3080 3078 3071 3067 3068 3073 3077 3077 3077 3080 3082 3083 3085 3085 3085 3084 3084 3084
2994 2997 3001 3003 3004 3006 3009 3012 3013 3015 3016 3018 3021 3023 3025 3027 3029 3031 3034 3037 3039 3041 3043 3044 3044 3047 3050 3053 3056 3056 3058 3060 3061 3061 3063 3065 3066 3067 3068 3070 3072 3074 3076 3076 3077 3078 3077 3076 3077 3078 3078 3077 3078 3078 3079 3081 3081 3081 3082 3083 3084 3084 3083 3081 3078 3077 3077 3077 3076 3076 3075 3070 3066 3062 3062 3068 3073 3073 3073 3075 3076 3078 3081 3083 3083 3082 3081 3081
2989 2992 2995 2997 2999 3002 3005 3008 3010 3011 3013 3015 3016 3018 3021 3023 3025 3028 3030 3032 3033 3036 3038 3039 3040 3043 3046 3048 3050 3050 3052 3055 3056 3058 3061 3062 3062 3064 3065 3065 3068 3070 3072 3073 3074 3075 3075 3073 3073 3075 3074 3072 3072 3072 3073 3074 3075 3075 3076 3078 3080 3078 3076 3073 3070 3072 3075 3074 3072 3072 3070 3062 3057 3057 3061 3065 3067 3067 3067 3068 3070 3072 3074 3076 3077 3077 3077 3076
2984 2988 2991 2993 2995 2997 3000 3003 3005 3006 3008 3010 3011 3013 3016 3018 3021 3024 3025 3027 3029 3032 3034 3036 3038 3041 3042 3043 3045 3046 3049 3051 3052 3054 3058 3059 3059 3060 3061 3062 3065 3067 3067 3069 3070 3070 3070 3069 3069 3071 3070 3066 3066 3067 3067 3069 3070 3069 3070 3071 3070 3067 3064 3064 3066 3068 3068 3066 3065 3067 3065 3056 3051 3055 3060 3061 3061 3061 3060 3061 3064 3065 3067 3068 3068 3068 3069 3069
2979 2982 2985 2988 2990 2992 2995 2998 3000 3001 3002 3005 3008 3009 3011 3013 3017 3021 3022 3023 3026 3028 3030 3033 3035 3037 3038 3038 3040 3042 3045 3047 3047 3050 3053 3054 3055 3056 3057 3058 3060 3061 3062 3064 3064 3064 3064 3065 3066 3066 3064 3061 3061 3062 3063 3066 3065 3061 3060 3060 3058 3057 3058 3060 3062 3059 3057 3059 3061 3060 3056 3052 3051 3054 3054 3053 3055 3056 3055 3055 3058 3058 3058 3059 3059 3060 3061 3062